Kalamazoo, MI

7:29 PM EST on February 23, 2017 (GMT -0500)
Kalamazoo-Battle Creek International

Weather History for KAZO - March, 2014

Change the Weather History Date:

Tuesday, March 4, 2014

  Actual Average Record
Temperature  
Mean Temperature 11 °F 32 °F  
Max Temperature 21 °F 40 °F 72 °F (1974)
Min Temperature 1 °F 24 °F -2 °F (2002)
Degree Days  
Heating Degree Days 54 33  
Month to date heating degree days 213 135  
Since 1 July heating degree days 5381 4908  
Cooling Degree Days 0 0  
Month to date cooling degree days 0 0  
Year to date cooling degree days 0 0  
Moisture  
Dew Point 0 °F    
Average Humidity 58    
Maximum Humidity 75    
Minimum Humidity 41    
Precipitation  
Precipitation T in 0.07 in 0.90 in (1977)
Month to date precipitation 0.08 0.30  
Year to date precipitation 2.61 3.54  
Sea Level Pressure  
Sea Level Pressure 30.31 in    
Wind  
Wind Speed 5 mph (SSW)    
Max Wind Speed 12 mph    
Max Gust Speed 14 mph    
Visibility 10 miles    
Events      
T = Trace of Precipitation, MM = Missing Value Source: NWS Daily Summary

Daily Weather History Graph

Daily Weather History Graph

Search for Another Location

Airport or City:

Trip Planner

Search our weather history database for the weather conditions in past years. The results will help you decide how hot, cold, wet, or windy it might be!

Date:

Astronomy

Mar. 04, 2014 Rise Set
Actual Time 7:12 AM EST 6:35 PM EST
Civil Twilight 6:44 AM EST 7:03 PM EST
Nautical Twilight 6:12 AM EST 7:36 PM EST
Astronomical Twilight 5:39 AM EST 8:08 PM EST
Moon 8:53 AM EST (3/4) 10:47 PM EST (3/4)
Length of Visible Light 12h 19m
Length of Day
11h 23m
Waxing Crescent, 14% of the Moon is Illuminated
Mar 4
Waxing Crescent
Mar 8
First Quarter
Mar 16
Full
Mar 23
Last Quarter
Mar 30
New

Hourly Weather History & Observations

Time (EST) Temp. Windchill Dew Point Humidity Pressure Visibility Wind Dir Wind Speed Gust Speed Precip Events Conditions
12:53 AM 3.0 °F -4.4 °F -7.1 °F 63% 30.43 in 10.0 mi SSE 3.5 mph - N/A   Clear
1:53 AM 6.1 °F -2.8 °F -5.1 °F 60% 30.41 in 10.0 mi South 4.6 mph - N/A   Partly Cloudy
2:53 AM 7.0 °F -5.7 °F -2.9 °F 64% 30.40 in 10.0 mi South 8.1 mph - N/A   Clear
3:53 AM 8.1 °F -0.5 °F -2.9 °F 61% 30.38 in 10.0 mi South 4.6 mph - N/A   Overcast
4:53 AM 8.1 °F -2.0 °F -2.0 °F 64% 30.38 in 10.0 mi South 5.8 mph - N/A   Mostly Cloudy
5:53 AM 8.1 °F -4.3 °F -2.9 °F 61% 30.37 in 10.0 mi South 8.1 mph - N/A   Overcast
6:53 AM 9.0 °F 2.4 °F -2.9 °F 59% 30.38 in 10.0 mi SW 3.5 mph - N/A   Overcast
7:53 AM 9.0 °F - -2.9 °F 59% 30.38 in 10.0 mi Calm Calm - N/A   Overcast
10:53 AM 12.9 °F -0.2 °F -0.9 °F 54% 30.32 in 10.0 mi South 10.4 mph - N/A   Overcast
11:53 AM 12.9 °F -0.2 °F -2.0 °F 51% 30.31 in 10.0 mi South 10.4 mph - N/A   Overcast
12:53 PM 15.1 °F 4.2 °F -0.0 °F 51% 30.29 in 10.0 mi South 8.1 mph - N/A   Overcast
1:53 PM 17.1 °F 10.0 °F -0.0 °F 47% 30.27 in 10.0 mi SSW 4.6 mph - N/A   Overcast
2:53 PM 18.0 °F 9.8 °F 1.9 °F 50% 30.26 in 10.0 mi South 5.8 mph - N/A   Overcast
3:53 PM 19.9 °F 12.1 °F 1.0 °F 44% 30.24 in 10.0 mi SSW 5.8 mph - N/A   Overcast
4:53 PM 21.0 °F 13.4 °F 1.9 °F 44% 30.23 in 10.0 mi WNW 5.8 mph - N/A   Overcast
5:53 PM 21.0 °F 16.2 °F 3.0 °F 46% 30.23 in 10.0 mi WSW 3.5 mph - N/A   Overcast
6:53 PM 19.9 °F 13.4 °F 7.0 °F 57% 30.25 in 10.0 mi North 4.6 mph - N/A   Mostly Cloudy
7:53 PM 19.9 °F 14.9 °F 6.1 °F 55% 30.27 in 10.0 mi North 3.5 mph - N/A   Overcast
8:53 PM 19.9 °F - 3.0 °F 48% 30.26 in 10.0 mi Calm Calm - N/A   Overcast
9:53 PM 19.0 °F - 3.9 °F 52% 30.27 in 10.0 mi Calm Calm - N/A   Overcast
10:53 PM 19.0 °F 13.9 °F 3.9 °F 52% 30.27 in 10.0 mi SSE 3.5 mph - N/A   Overcast
11:53 PM 19.0 °F - 3.9 °F 52% 30.30 in 10.0 mi Calm Calm - N/A   Overcast